User: anonymous   Login
Location: Oshawa
(43.9000°N, 78.8670°W)
Time: 14:14:11
(UTC-04:00)
Language:

Iridium 46 - Orbit

View from above orbital plane
View from above orbital plane
View from above satellite
View from above satellite

Ground track
Ground track

The orbit data is extracted from the following two-line orbital elements,

1 24905U 97043C   17080.94291695 +.00000022 +00000-0 +93521-6 0  9994
2 24905 086.3927 291.8697 0001719 089.7235 270.4158 14.34213270025327
Epoch (UTC): 21 March 2017 22:37:48
Eccentricity: 0.0001719
inclination: 86.3927°
perigee height: 776 km
apogee height: 779 km
right ascension of ascending node: 291.8697°
argument of perigee: 89.7235°
revolutions per day: 14.34213270
mean anomaly at epoch: 270.4158°
orbit number at epoch: 2532

The dashed part of the orbit path shows where the satellite is in the earth's shadow,  

DLR